When you browse on this site, cookies collect data to enhance your experience and personalize the content and advertising you see.
Visit our Privacy Policy to learn more. By continuing to use the site, you agree to this use of cookies and data.
  • Em Portugal
  • Lista de países
  • Para 7 dias
  • Temperatura da água
  • Mapas de satélite
  • Mapa do tempo
  • Widgets de tempo
  • user-avatar
    Iniciar Sessão

    Previsão horária em Irset

    Hoje, 20 Junho, Quinta-feira

    Tempo Temperatura Precipitação Vento Pressão Humidade
    00:00 +18°C° 0 mm 1 m/s 745 mmHg 86%
    01:00 +16°C° 0 mm 1 m/s 745 mmHg 87%
    02:00 +16°C° 0 mm 1 m/s 745 mmHg 89%
    03:00 +16°C° 0 mm 1 m/s 745 mmHg 89%
    04:00 +18°C° 0 mm 1 m/s 746 mmHg 88%
    05:00 +18°C° 0 mm 1 m/s 746 mmHg 87%
    06:00 +19°C° 0 mm 1 m/s 746 mmHg 86%
    07:00 +20°C° 0 mm 2 m/s 746 mmHg 80%
    08:00 +23°C° 0 mm 2 m/s 746 mmHg 75%
    09:00 +24°C° 0 mm 2 m/s 747 mmHg 69%
    10:00 +25°C° 0 mm 2 m/s 747 mmHg 64%
    11:00 +26°C° 0 mm 3 m/s 747 mmHg 59%
    12:00 +27°C° 0 mm 3 m/s 747 mmHg 54%
    13:00 +27°C° 0 mm 3 m/s 747 mmHg 53%
    14:00 +27°C° 0 mm 2 m/s 747 mmHg 51%
    15:00 +28°C° 0 mm 2 m/s 746 mmHg 51%
    16:00 +27°C° 0 mm 2 m/s 746 mmHg 56%
    17:00 +27°C° 0 mm 1 m/s 746 mmHg 61%
    18:00 +27°C° 0 mm 1 m/s 747 mmHg 65%
    19:00 +25°C° 0 mm 1 m/s 747 mmHg 68%
    20:00 +23°C° 0 mm 1 m/s 747 mmHg 72%
    21:00 +19°C° 0 mm 0 m/s 747 mmHg 75%
    22:00 +18°C° 0 mm 0 m/s 747 mmHg 76%
    23:00 +18°C° 0 mm 0 m/s 747 mmHg 77%

    Amanhã, 21 Junho, Sexta-feira

    Tempo Temperatura Precipitação Vento Pressão Humidade
    00:00 +19°C° 0 mm 1 m/s 747 mmHg 78%
    01:00 +19°C° 0 mm 1 m/s 748 mmHg 80%
    02:00 +18°C° 0 mm 1 m/s 748 mmHg 81%
    03:00 +18°C° 0 mm 1 m/s 748 mmHg 82%
    04:00 +19°C° 0 mm 1 m/s 748 mmHg 80%
    05:00 +20°C° 0 mm 1 m/s 749 mmHg 77%
    06:00 +19°C° 0 mm 0 m/s 749 mmHg 75%
    07:00 +23°C° 0 mm 1 m/s 749 mmHg 70%
    08:00 +24°C° 0 mm 1 m/s 749 mmHg 65%
    09:00 +26°C° 0 mm 1 m/s 749 mmHg 61%
    10:00 +27°C° 0 mm 1 m/s 749 mmHg 56%
    11:00 +28°C° 0 mm 1 m/s 749 mmHg 51%
    12:00 +29°C° 0 mm 1 m/s 749 mmHg 46%
    13:00 +28°C° 0 mm 1 m/s 749 mmHg 50%
    14:00 +28°C° 0 mm 2 m/s 749 mmHg 53%
    15:00 +28°C° 0 mm 2 m/s 749 mmHg 57%
    16:00 +28°C° 0 mm 2 m/s 749 mmHg 60%
    17:00 +27°C° 0 mm 2 m/s 748 mmHg 63%
    18:00 +27°C° 0 mm 2 m/s 748 mmHg 66%
    19:00 +25°C° 0 mm 2 m/s 748 mmHg 68%
    20:00 +24°C° 0 mm 2 m/s 748 mmHg 71%
    21:00 +21°C° 0 mm 2 m/s 748 mmHg 73%
    22:00 +21°C° 0 mm 2 m/s 748 mmHg 72%
    23:00 +20°C° 0 mm 2 m/s 748 mmHg 72%

    Depois de amanhã, 22 Junho, Sábado

    Tempo Temperatura Precipitação Vento Pressão Humidade
    00:00 +20°C° 0 mm 2 m/s 749 mmHg 71%
    01:00 +20°C° 0 mm 2 m/s 749 mmHg 70%
    02:00 +20°C° 0 mm 2 m/s 749 mmHg 70%
    03:00 +20°C° 0 mm 2 m/s 749 mmHg 70%
    04:00 +20°C° 0 mm 2 m/s 749 mmHg 73%
    05:00 +20°C° 0 mm 2 m/s 749 mmHg 76%
    06:00 +20°C° 0 mm 2 m/s 749 mmHg 79%
    07:00 +23°C° 0 mm 2 m/s 749 mmHg 77%
    08:00 +24°C° 0 mm 3 m/s 749 mmHg 75%
    09:00 +25°C° 0 mm 3 m/s 749 mmHg 72%
    10:00 +26°C° 0.2 mm 4 m/s 749 mmHg 67%
    11:00 +27°C° 0.2 mm 4 m/s 749 mmHg 63%
    12:00 +28°C° 0.2 mm 5 m/s 749 mmHg 58%
    13:00 +28°C° 0.1 mm 5 m/s 748 mmHg 57%
    14:00 +29°C° 0.1 mm 5 m/s 748 mmHg 57%
    15:00 +29°C° 0.1 mm 6 m/s 748 mmHg 56%
    16:00 +28°C° 0 mm 5 m/s 748 mmHg 61%
    17:00 +28°C° 0 mm 4 m/s 747 mmHg 65%
    18:00 +27°C° 0 mm 4 m/s 747 mmHg 70%
    19:00 +26°C° 0 mm 4 m/s 747 mmHg 73%
    20:00 +24°C° 0 mm 3 m/s 747 mmHg 77%
    21:00 +22°C° 0 mm 3 m/s 747 mmHg 80%
    22:00 +21°C° 0 mm 3 m/s 747 mmHg 81%
    23:00 +21°C° 0 mm 3 m/s 747 mmHg 81%

    23 Junho, Domingo

    Tempo Temperatura Precipitação Vento Pressão Humidade
    00:00 +20°C° 0 mm 3 m/s 747 mmHg 82%
    01:00 +20°C° 0 mm 3 m/s 748 mmHg 83%
    02:00 +20°C° 0 mm 3 m/s 748 mmHg 85%
    03:00 +19°C° 0 mm 3 m/s 748 mmHg 86%
    04:00 +20°C° 0 mm 4 m/s 748 mmHg 85%
    05:00 +21°C° 0 mm 4 m/s 748 mmHg 84%
    06:00 +21°C° 0 mm 4 m/s 748 mmHg 83%
    07:00 +23°C° 0 mm 4 m/s 748 mmHg 79%
    08:00 +25°C° 0 mm 4 m/s 748 mmHg 75%
    09:00 +27°C° 0 mm 4 m/s 748 mmHg 71%
    10:00 +28°C° 0 mm 4 m/s 748 mmHg 68%
    11:00 +29°C° 0 mm 4 m/s 748 mmHg 64%
    12:00 +29°C° 0 mm 4 m/s 748 mmHg 61%
    13:00 +29°C° 0.3 mm 4 m/s 748 mmHg 61%
    14:00 +30°C° 0.3 mm 4 m/s 748 mmHg 61%
    15:00 +30°C° 0.3 mm 4 m/s 748 mmHg 62%
    16:00 +29°C° 0.4 mm 4 m/s 747 mmHg 66%
    17:00 +28°C° 0.4 mm 3 m/s 747 mmHg 71%
    18:00 +27°C° 0.4 mm 2 m/s 747 mmHg 75%
    19:00 +26°C° 0.1 mm 2 m/s 747 mmHg 80%
    20:00 +24°C° 0.1 mm 2 m/s 747 mmHg 84%
    21:00 +23°C° 0.1 mm 2 m/s 747 mmHg 88%
    22:00 +21°C° 0 mm 2 m/s 747 mmHg 90%
    23:00 +20°C° 0 mm 2 m/s 748 mmHg 92%

    24 Junho, Segunda-feira

    Tempo Temperatura Precipitação Vento Pressão Humidade
    00:00 +20°C° 0 mm 2 m/s 748 mmHg 94%
    01:00 +19°C° 0 mm 2 m/s 748 mmHg 92%
    02:00 +18°C° 0 mm 2 m/s 748 mmHg 90%
    03:00 +17°C° 0 mm 2 m/s 748 mmHg 88%
    04:00 +17°C° 0 mm 3 m/s 748 mmHg 85%
    05:00 +17°C° 0 mm 3 m/s 749 mmHg 82%
    06:00 +17°C° 0 mm 3 m/s 749 mmHg 80%
    07:00 +18°C° 0 mm 4 m/s 749 mmHg 73%
    08:00 +19°C° 0 mm 4 m/s 749 mmHg 66%
    09:00 +21°C° 0 mm 4 m/s 750 mmHg 59%
    10:00 +21°C° 0 mm 5 m/s 750 mmHg 56%
    11:00 +22°C° 0 mm 5 m/s 750 mmHg 53%
    12:00 +22°C° 0 mm 5 m/s 750 mmHg 50%
    13:00 +22°C° 0 mm 5 m/s 750 mmHg 50%
    14:00 +22°C° 0 mm 5 m/s 750 mmHg 50%
    15:00 +22°C° 0 mm 5 m/s 750 mmHg 50%
    16:00 +22°C° 0 mm 4 m/s 750 mmHg 55%
    17:00 +21°C° 0 mm 4 m/s 750 mmHg 59%
    18:00 +21°C° 0 mm 3 m/s 751 mmHg 63%
    19:00 +19°C° 0 mm 3 m/s 751 mmHg 66%
    20:00 +17°C° 0 mm 3 m/s 751 mmHg 69%
    21:00 +15°C° 0 mm 2 m/s 751 mmHg 72%
    22:00 +13°C° 0 mm 3 m/s 751 mmHg 74%
    23:00 +12°C° 0 mm 3 m/s 751 mmHg 77%

    25 Junho, Terça-feira

    Tempo Temperatura Precipitação Vento Pressão Humidade
    00:00 +12°C° 0 mm 3 m/s 751 mmHg 79%
    01:00 +12°C° 0 mm 2 m/s 751 mmHg 81%
    02:00 +12°C° 0 mm 2 m/s 752 mmHg 83%
    03:00 +10°C° 0 mm 2 m/s 752 mmHg 85%
    04:00 +12°C° 0 mm 2 m/s 752 mmHg 84%
    05:00 +12°C° 0 mm 3 m/s 752 mmHg 82%
    06:00 +12°C° 0 mm 3 m/s 752 mmHg 81%
    07:00 +14°C° 0 mm 4 m/s 752 mmHg 76%
    08:00 +15°C° 0 mm 4 m/s 752 mmHg 70%
    09:00 +17°C° 0 mm 4 m/s 752 mmHg 65%
    10:00 +18°C° 0 mm 4 m/s 752 mmHg 62%
    11:00 +17°C° 0 mm 5 m/s 752 mmHg 60%
    12:00 +17°C° 0 mm 5 m/s 752 mmHg 57%
    13:00 +17°C° 0 mm 5 m/s 752 mmHg 57%
    14:00 +17°C° 0 mm 5 m/s 752 mmHg 56%
    15:00 +17°C° 0 mm 5 m/s 752 mmHg 56%
    16:00 +18°C° 0 mm 4 m/s 751 mmHg 59%
    17:00 +18°C° 0 mm 4 m/s 751 mmHg 61%
    18:00 +18°C° 0 mm 3 m/s 751 mmHg 64%
    19:00 +16°C° 0 mm 2 m/s 751 mmHg 70%
    20:00 +14°C° 0 mm 2 m/s 751 mmHg 76%
    21:00 +12°C° 0 mm 1 m/s 751 mmHg 82%
    22:00 +12°C° 0 mm 1 m/s 751 mmHg 83%
    23:00 +11°C° 0 mm 1 m/s 751 mmHg 84%
    Mostrar mais